Regional Weather Roundup
Issued by NWS

Home | Current Version | Previous Version | Graphics & Text | Print | Product List | Glossary On
Versions: 1 2 3 4 5 6 7 8 9 10 11 12 13 14 15 16 17 18 19 20 21 22 23 24 25 26 27 28 29 30 31 32 33 34 35 36 37 38 39 40 41 42 43 44 45 46 47 48 49 50
000
ASUS45 KBOU 302310
RWRCO

WEATHER ROUNDUP FOR COLORADO
NATIONAL WEATHER SERVICE DENVER/BOULDER CO
500 PM MDT THU JUL 30 2015

NOTE: "FAIR" INDICATES FEW OR NO CLOUDS BELOW 12000 FEET WITH NO
SIGNIFICANT WEATHER AND/OR OBSTRUCTIONS TO VISIBILITY.

COZ001>005-013-030-031-310000-
...NORTHWEST COLORADO...

CITY           SKY/WX    TMP DP  RH WIND       PRES   REMARKS
CRAIG          SUNNY     90  19   7 CALM      30.32F
HAYDEN         SUNNY     84  23  10 W9        30.35F
MEEKER         SUNNY     88  21   8 S7        30.32F
MOUNT WERNER   NOT AVBL
STEAMBOAT SPGS SUNNY     85  18   8 NW3       30.37F
WALDEN         SUNNY     77  19  11 W7        30.48F
$$

COZ006>008-011-310000-
...WEST CENTRAL VALLEYS...

CITY           SKY/WX    TMP DP  RH WIND       PRES   REMARKS
GRAND JUNCTION SUNNY     93  25   8 W8        30.18F
MONTROSE       SUNNY     90  30  11 W10G22    30.26F
EAGLE          MOSUNNY   88  27  11 CALM      30.33F
RIFLE          SUNNY     92  23   8 CALM      30.23F
DELTA          SUNNY     97  26   8 S9        30.21S
NUCLA          SUNNY     91  27   9 NE10      30.29F
$$

COZ017>023-064>068-310000-
...SOUTHWEST COLORADO...

CITY           SKY/WX    TMP DP  RH WIND       PRES   REMARKS
DURANGO        CLOUDY    79  47  32 S21       30.33F
CORTEZ         LGT RAIN  71  50  47 VRB6      30.31S
PAGOSA SPRINGS CLOUDY    74  40  28 S6        30.44S
TELLURIDE      PTSUNNY   77  26  15 W9        30.53F
WOLF CREEK PAS NOT AVBL
$$

COZ009-010-012-014-032>034-037-058>063-310000-
...CENTRAL COLORADO...

CITY           SKY/WX    TMP DP  RH WIND       PRES   REMARKS
ASPEN          MOSUNNY   82  27  13 N10       30.42F
BUENA VISTA    MOSUNNY   81  29  15 CALM      30.42F
COPPER MTN     MOSUNNY   68  19  15 W16       30.79S
BERTHOUD PASS  PTSUNNY   50  39  66 E14G29    30.85S
COTTONWOOD PAS MOSUNNY   79  21  11 E3        30.60F
GUNNISON       MOSUNNY   81  32  17 SW8       30.42S
KREMMLING      SUNNY     86   3   4 NW7       30.41F
LEADVILLE      PTSUNNY   76  23  14 VRB5      30.58F
MONARCH PASS   PTSUNNY   59  34  38 E15       30.87S
SALIDA         MOSUNNY   83  41  23 SE16G23   30.46S
SUNLIGHT       SUNNY     70  28  21 NW3       30.72F
WILKERSON PASS MOSUNNY   63  34  34 NE5       30.76F
$$

COZ069>075-310000-
...SAN LUIS VALLEY/SANGRE DE CRISTO MOUNTAINS...

CITY           SKY/WX    TMP DP  RH WIND       PRES   REMARKS
ALAMOSA        PTSUNNY   71  50  47 SE14      30.42F
LA VETA PASS   CLOUDY    59  45  58 MISG      30.65S THUNDER
SAGUACHE       PTSUNNY   77  50  38 SE21G26   30.44R
$$

COZ035-036-038>040-310000-
...NORTHERN COLORADO FRONT RANGE...

CITY           SKY/WX    TMP DP  RH WIND       PRES   REMARKS
DENVER INTL AP MOSUNNY   89  41  18 VRB7G16   30.27F
DMNS CITY PARK   N/A     89  34  14 N1G12     30.26F
AURORA         MOSUNNY   89  41  18 NE7       30.29F
FRONT RANGE AP MOSUNNY   86  39  19 MISG      30.28F
ERIE MUNI ARPT SUNNY     90  29  11 N8G17     30.26S
BOULDER MUN AP SUNNY     90  36  14 N5        30.27F
CENTENNIAL     MOSUNNY   88  39  17 NE8       30.30F
BROOMFIELD     MOSUNNY   90  34  13 NE9       30.31F
FORT COLLINS   MOSUNNY   90  45  20 E7        30.24S
LONGMONT       MOSUNNY   92  36  14 N7        30.27F
$$

COZ041-046-047-076>085-087-088-310000-
...PIKES PEAK/PALMER DIVIDE AND SOUTHERN FOOTHILLS...

CITY           SKY/WX    TMP DP  RH WIND       PRES   REMARKS
COLO. SPRINGS  PTSUNNY   80  50  34 E15       30.35F
A. F. ACADEMY  MOSUNNY   80  49  33 E12       30.36F
ELLICOTT         N/A    N/A N/A N/A E18       30.36F THUNDER
FALCON         PTSUNNY   74  51  44 E9        30.42F
FORT CARSON    PTSUNNY   79  55  43 E8        30.32S
LIMON          PTSUNNY   85  51  31 S15       30.29F
MONUMENT HILL  NOT AVBL
TRINIDAD       MOSUNNY   81  54  39 E9G16     30.31S
$$

COZ042>045-048>051-090-091-310000-
...NORTHEAST COLORADO...

CITY           SKY/WX    TMP DP  RH WIND       PRES   REMARKS
GREELEY ARPT   SUNNY     90  45  20 E6        30.24F
AKRON          PTSUNNY   71  56  58 E18G30    30.26S
BURLINGTON     SUNNY     86  56  35 S14G23    30.24F
WRAY           MOSUNNY   88  50  26 SE15      30.20S
STERLING       PTSUNNY   86  59  39 SE14      30.20
HOLYOKE        NOT AVBL
FORT MORGAN    PTSUNNY   91  46  21 CALM      30.23F
$$

COZ086-089-092>099-310000-
...SOUTHEAST COLORADO...

CITY           SKY/WX    TMP DP  RH WIND       PRES   REMARKS
PUEBLO         MOSUNNY   91  49  23 SE16      30.21F
LA JUNTA       SUNNY     89  52  28 SE15G24   30.23S
LAMAR          PTSUNNY   81  65  58 SE13      30.21F
SPRINGFIELD      N/A     75  65  70 SE15      30.28F
$$


USA.gov is the U.S. government's official web portal to all federal, state and local government web resources and services.